START_TIME,STEP,MOV.,M34,t_acc.,L5,t_acc.,L18,t_acc.,L14,t_acc.
1981-08-30 15:00:25.230 ,1,0,0.,12.0,0.,12.0,0.,12.0,0.,12.0
1981-08-30 15:00:37.230 ,1,0,0.,12.0,0.,12.0,0.,12.0,0.,12.0
1981-08-30 15:00:49.230 ,0,1,0.,12.0,0.,12.0,0.,12.0,0.,12.0
1981-08-30 15:01:01.230 ,0,1,0.,12.0,0.,12.0,0.,12.0,0.,12.0
1981-08-30 15:01:13.230 ,0,0,0.,12.0,0.,12.0,0.,12.0,0.,12.0
1981-08-30 15:01:25.230 ,0,0,0.,12.0,0.,12.0,0.,12.0,0.,12.0
1981-08-30 15:01:37.230 ,0,1,0.,12.0,0.,12.0,0.,12.0,0.,12.0
1981-08-30 15:01:49.230 ,0,1,0.,12.0,0.,12.0,0.,12.0,0.,12.0
1981-08-30 15:02:01.230 ,0,0,0.,12.0,0.,12.0,0.,12.0,0.,12.0
1981-08-30 15:02:13.230 ,0,0,0.,12.0,0.,12.0,0.,12.0,0.,12.0
1981-08-30 15:02:25.220 ,1,1,0.,12.0,0.,12.0,0.,12.0,0.,12.0
1981-08-30 15:02:37.230 ,1,1,0.,12.0,0.,12.0,0.,12.0,0.,12.0
1981-08-30 15:02:49.220 ,1,0,0.,12.0,0.,12.0,0.,12.0,0.,12.0
1981-08-30 15:03:01.230 ,1,0,0.,12.0,0.,12.0,0.,12.0,0.,12.0
1981-08-30 15:03:13.220 ,2,1,0.,12.0,0.,12.0,0.,12.0,0.,12.0
1981-08-30 15:03:25.230 ,2,1,0.,12.0,0.,12.0,0.,12.0,0.,12.0
1981-08-30 15:03:37.220 ,2,0,0.,12.0,0.,12.0,0.,12.0,0.,12.0
1981-08-30 15:03:49.230 ,2,0,0.,12.0,0.,12.0,0.,12.0,0.,12.0
1981-08-30 15:04:01.220 ,3,1,0.,12.0,0.,12.0,0.,12.0,0.,12.0
1981-08-30 15:04:13.230 ,3,1,0.,12.0,0.,12.0,0.,12.0,0.,12.0
1981-08-30 15:04:25.230 ,4,1,0.,12.0,0.,12.0,0.,12.0,0.,12.0
1981-08-30 15:04:37.230 ,4,1,0.,12.0,0.,12.0,0.,12.0,0.,12.0
1981-08-30 15:04:49.230 ,5,1,0.,12.0,0.,12.0,0.,12.0,0.,12.0
1981-08-30 15:05:01.230 ,5,1,0.,12.0,0.,12.0,0.,12.0,0.,12.0
1981-08-30 15:05:13.230 ,6,1,0.,12.0,0.,12.0,0.,12.0,0.,12.0
1981-08-30 15:05:25.230 ,6,1,0.,12.0,0.,12.0,0.,12.0,0.,12.0
1981-08-30 15:05:37.230 ,7,1,0.,12.0,0.,12.0,0.,12.0,0.,12.0
1981-08-30 15:05:49.230 ,7,1,0.,12.0,0.,12.0,0.,12.0,0.,12.0
1981-08-30 15:06:01.230 ,7,1,0.,12.0,0.,12.0,0.,12.0,0.,12.0
1981-08-30 15:06:13.230 ,7,1,0.,12.0,0.,12.0,0.,12.0,0.,12.0
1981-08-30 15:06:25.220 ,6,1,0.,12.0,0.,12.0,0.,12.0,0.,12.0
1981-08-30 15:06:37.220 ,6,1,0.,12.0,0.,12.0,0.,12.0,0.,12.0
1981-08-30 15:06:49.220 ,5,1,0.,12.0,0.,12.0,0.,12.0,0.,12.0
1981-08-30 15:07:01.220 ,5,1,0.,12.0,0.,12.0,0.,12.0,0.,12.0
1981-08-30 15:07:13.220 ,4,1,0.,12.0,0.,12.0,0.,12.0,0.,12.0
1981-08-30 15:07:25.220 ,4,1,0.,12.0,0.,12.0,0.,12.0,0.,12.0
1981-08-30 15:07:37.220 ,3,1,0.,12.0,0.,12.0,0.,12.0,0.,12.0
1981-08-30 15:07:49.220 ,3,1,0.,12.0,0.,12.0,0.,12.0,0.,12.0
1981-08-30 15:08:01.220 ,2,1,0.,12.0,0.,12.0,0.,12.0,0.,12.0
1981-08-30 15:08:13.220 ,2,1,0.,12.0,0.,12.0,0.,12.0,0.,12.0
1981-08-30 15:08:25.220 ,1,1,0.,12.0,0.,12.0,0.,12.0,0.,12.0
1981-08-30 15:08:37.220 ,1,1,0.,12.0,0.,12.0,0.,12.0,0.,12.0
1981-08-30 15:08:49.220 ,0,1,0.,12.0,0.,12.0,0.,12.0,0.,12.0
1981-08-30 15:09:01.220 ,0,1,0.,12.0,0.,12.0,0.,12.0,0.,12.0
1981-08-30 15:09:13.220 ,0,1,0.,12.0,0.,12.0,0.,12.0,0.,12.0
1981-08-30 15:09:25.220 ,0,1,0.,12.0,0.,12.0,0.,12.0,0.,12.0
1981-08-30 15:09:37.220 ,1,1,0.,12.0,0.,12.0,0.,12.0,0.,12.0
1981-08-30 15:09:49.220 ,1,1,0.,12.0,0.,12.0,0.,12.0,0.,12.0
1981-08-30 15:10:01.220 ,2,1,0.,12.0,0.,12.0,0.,12.0,0.,12.0
1981-08-30 15:10:13.220 ,2,1,0.,12.0,0.,12.0,0.,12.0,0.,12.0
1981-08-30 15:10:25.220 ,3,1,0.,12.0,0.,12.0,0.,12.0,0.,12.0
1981-08-30 15:10:37.220 ,3,1,0.,12.0,0.,12.0,0.,12.0,0.,12.0
1981-08-30 15:10:49.220 ,3,0,0.,12.0,0.,12.0,0.,12.0,0.,12.0
1981-08-30 15:11:01.220 ,3,0,0.,12.0,0.,12.0,0.,12.0,0.,12.0
1981-08-30 15:11:13.220 ,4,1,0.,12.0,0.,12.0,0.,12.0,0.,12.0
1981-08-30 15:11:25.220 ,4,1,0.,12.0,0.,12.0,0.,12.0,0.,12.0
1981-08-30 15:11:37.220 ,4,0,0.,12.0,0.,12.0,0.,12.0,0.,12.0
1981-08-30 15:11:49.220 ,4,0,0.,12.0,0.,12.0,0.,12.0,0.,12.0
1981-08-30 15:12:01.220 ,5,1,0.,12.0,0.,12.0,0.,12.0,0.,12.0
1981-08-30 15:12:13.220 ,5,1,0.,12.0,0.,12.0,0.,12.0,0.,12.0
1981-08-30 15:12:25.220 ,5,0,0.,12.0,0.,12.0,0.,12.0,0.,12.0
1981-08-30 15:12:37.220 ,5,0,0.,12.0,0.,12.0,0.,12.0,0.,12.0
1981-08-30 15:12:49.220 ,6,1,0.,12.0,0.,12.0,0.,12.0,0.,12.0
1981-08-30 15:13:01.220 ,6,1,0.,12.0,0.,12.0,0.,12.0,0.,12.0
1981-08-30 15:13:13.220 ,6,0,0.,12.0,0.,12.0,0.,12.0,0.,12.0
1981-08-30 15:13:25.220 ,6,0,0.,12.0,0.,12.0,0.,12.0,0.,12.0
1981-08-30 15:13:37.220 ,7,1,0.,12.0,0.,12.0,0.,12.0,0.,12.0
1981-08-30 15:13:49.220 ,7,1,0.,12.0,0.,12.0,0.,12.0,0.,12.0
1981-08-30 15:14:01.220 ,7,0,0.,12.0,0.,12.0,0.,12.0,0.,12.0
1981-08-30 15:14:13.220 ,7,0,0.,12.0,0.,12.0,0.,12.0,0.,12.0
1981-08-30 15:14:25.220 ,7,1,0.,12.0,0.,12.0,0.,12.0,0.,12.0
1981-08-30 15:14:37.220 ,7,1,0.,12.0,0.,12.0,0.,12.0,0.,12.0
1981-08-30 15:14:49.220 ,7,0,0.,12.0,0.,12.0,0.,12.0,0.,12.0
1981-08-30 15:15:01.220 ,7,0,0.,12.0,0.,12.0,0.,12.0,0.,12.0
1981-08-30 15:15:13.220 ,6,1,0.,12.0,0.,12.0,0.,12.0,0.,12.0
1981-08-30 15:15:25.220 ,6,1,0.,12.0,0.,12.0,0.,12.0,0.,12.0
1981-08-30 15:15:37.220 ,6,0,0.,12.0,0.,12.0,0.,12.0,0.,12.0
1981-08-30 15:15:49.220 ,6,0,0.,12.0,0.,12.0,0.,12.0,0.,12.0
1981-08-30 15:16:01.220 ,5,1,0.,12.0,0.,12.0,0.,12.0,0.,12.0
1981-08-30 15:16:13.220 ,5,1,0.,12.0,0.,12.0,0.,12.0,0.,12.0
1981-08-30 15:16:25.220 ,5,0,0.,12.0,0.,12.0,0.,12.0,0.,12.0
1981-08-30 15:16:37.220 ,5,0,0.,12.0,0.,12.0,0.,12.0,0.,12.0
1981-08-30 15:16:49.220 ,4,1,0.,12.0,0.,12.0,0.,12.0,0.,12.0
1981-08-30 15:17:01.220 ,4,1,0.,12.0,0.,12.0,0.,12.0,0.,12.0
1981-08-30 15:17:13.220 ,4,0,0.,12.0,0.,12.0,0.,12.0,0.,12.0
1981-08-30 15:17:25.220 ,4,0,0.,12.0,0.,12.0,0.,12.0,0.,12.0
1981-08-30 15:17:37.220 ,3,1,0.,12.0,0.,12.0,0.,12.0,0.,12.0
1981-08-30 15:17:49.220 ,3,1,0.,12.0,0.,12.0,0.,12.0,0.,12.0
1981-08-30 15:18:01.220 ,3,0,0.,12.0,0.,12.0,0.,12.0,0.,12.0
1981-08-30 15:18:13.220 ,3,0,0.,12.0,0.,12.0,0.,12.0,0.,12.0
1981-08-30 15:18:25.220 ,2,1,0.,12.0,0.,12.0,0.,12.0,0.,12.0
1981-08-30 15:18:37.220 ,2,1,0.,12.0,0.,12.0,0.,12.0,0.,12.0
1981-08-30 15:18:49.220 ,2,0,0.,12.0,0.,12.0,0.,12.0,1.,12.0
1981-08-30 15:19:01.220 ,2,0,0.,12.0,0.,12.0,0.,12.0,0.,12.0
1981-08-30 15:19:13.220 ,1,1,0.,12.0,0.,12.0,0.,12.0,0.,12.0
1981-08-30 15:19:25.220 ,1,1,0.,12.0,0.,12.0,0.,12.0,0.,12.0
1981-08-30 15:19:37.220 ,1,0,0.,12.0,0.,12.0,0.,12.0,0.,12.0
1981-08-30 15:19:49.220 ,1,0,0.,12.0,0.,12.0,0.,12.0,0.,12.0
1981-08-30 15:20:01.220 ,0,1,0.,12.0,0.,12.0,0.,12.0,0.,12.0
1981-08-30 15:20:13.220 ,0,1,0.,12.0,0.,12.0,0.,12.0,0.,12.0
1981-08-30 15:20:25.220 ,0,0,0.,12.0,0.,12.0,0.,12.0,0.,12.0
1981-08-30 15:20:37.220 ,0,0,0.,12.0,0.,12.0,0.,12.0,0.,12.0
1981-08-30 15:20:49.220 ,0,1,0.,12.0,0.,12.0,0.,12.0,0.,12.0
1981-08-30 15:21:01.220 ,0,1,0.,12.0,0.,12.0,0.,12.0,0.,12.0
1981-08-30 15:21:13.220 ,0,0,0.,12.0,0.,12.0,0.,12.0,0.,12.0
1981-08-30 15:21:25.220 ,0,0,0.,12.0,0.,12.0,0.,12.0,0.,12.0
1981-08-30 15:21:37.220 ,1,1,0.,12.0,0.,12.0,0.,12.0,0.,12.0
1981-08-30 15:21:49.220 ,1,1,0.,12.0,0.,12.0,0.,12.0,0.,12.0
1981-08-30 15:22:01.220 ,1,0,0.,12.0,0.,12.0,0.,12.0,0.,12.0
1981-08-30 15:22:13.220 ,1,0,0.,12.0,0.,12.0,0.,12.0,0.,12.0
1981-08-30 15:22:25.220 ,2,1,0.,12.0,0.,12.0,0.,12.0,0.,12.0
1981-08-30 15:22:37.220 ,2,1,0.,12.0,0.,12.0,0.,12.0,0.,12.0
1981-08-30 15:22:49.220 ,2,0,0.,12.0,0.,12.0,0.,12.0,1.,12.0
1981-08-30 15:23:01.220 ,2,0,0.,12.0,0.,12.0,0.,12.0,0.,12.0
1981-08-30 15:23:13.220 ,3,1,0.,12.0,0.,12.0,0.,12.0,0.,12.0
1981-08-30 15:23:25.220 ,3,1,0.,12.0,0.,12.0,0.,12.0,0.,12.0
1981-08-30 15:23:37.220 ,4,1,0.,12.0,0.,12.0,0.,12.0,0.,12.0
1981-08-30 15:23:49.220 ,4,1,0.,12.0,0.,12.0,0.,12.0,0.,12.0
1981-08-30 15:24:01.220 ,5,1,0.,12.0,0.,12.0,0.,12.0,0.,12.0
1981-08-30 15:24:13.220 ,5,1,0.,12.0,0.,12.0,0.,12.0,0.,12.0
1981-08-30 15:24:25.220 ,6,1,0.,12.0,0.,12.0,0.,12.0,0.,12.0
1981-08-30 15:24:37.220 ,6,1,0.,12.0,0.,12.0,0.,12.0,0.,12.0
1981-08-30 15:24:49.220 ,7,1,0.,12.0,0.,12.0,0.,12.0,0.,12.0
1981-08-30 15:25:01.220 ,7,1,0.,12.0,0.,12.0,0.,12.0,0.,12.0
1981-08-30 15:25:13.220 ,7,1,0.,12.0,0.,12.0,0.,12.0,0.,12.0
1981-08-30 15:25:25.220 ,7,1,0.,12.0,0.,12.0,0.,12.0,0.,12.0
1981-08-30 15:25:37.220 ,6,1,0.,12.0,0.,12.0,0.,12.0,0.,12.0
1981-08-30 15:25:49.220 ,6,1,0.,12.0,0.,12.0,0.,12.0,0.,12.0
1981-08-30 15:26:01.220 ,5,1,0.,12.0,0.,12.0,0.,12.0,0.,12.0
1981-08-30 15:26:13.220 ,5,1,0.,12.0,0.,12.0,0.,12.0,0.,12.0
1981-08-30 15:26:25.220 ,4,1,0.,12.0,0.,12.0,0.,12.0,0.,12.0
1981-08-30 15:26:37.220 ,4,1,0.,12.0,0.,12.0,0.,12.0,0.,12.0
1981-08-30 15:26:49.220 ,3,1,0.,12.0,0.,12.0,0.,12.0,0.,12.0
1981-08-30 15:27:01.220 ,3,1,0.,12.0,0.,12.0,0.,12.0,0.,12.0
1981-08-30 15:27:13.220 ,2,1,0.,12.0,0.,12.0,0.,12.0,0.,12.0
1981-08-30 15:27:25.220 ,2,1,0.,12.0,0.,12.0,0.,12.0,0.,12.0
1981-08-30 15:27:37.220 ,1,1,0.,12.0,0.,12.0,0.,12.0,0.,12.0
1981-08-30 15:27:49.220 ,1,1,0.,12.0,0.,12.0,0.,12.0,0.,12.0
1981-08-30 15:28:01.220 ,0,1,0.,12.0,0.,12.0,0.,12.0,0.,12.0
1981-08-30 15:28:13.220 ,0,1,0.,12.0,0.,12.0,0.,12.0,0.,12.0
1981-08-30 15:28:25.220 ,0,1,0.,12.0,0.,12.0,0.,12.0,0.,12.0
1981-08-30 15:28:37.220 ,0,1,0.,12.0,0.,12.0,0.,12.0,0.,12.0
1981-08-30 15:28:49.220 ,1,1,0.,12.0,0.,12.0,0.,12.0,0.,12.0
1981-08-30 15:29:01.220 ,1,1,0.,12.0,0.,12.0,0.,12.0,0.,12.0
1981-08-30 15:29:13.220 ,2,1,0.,12.0,0.,12.0,0.,12.0,0.,12.0
1981-08-30 15:29:25.220 ,2,1,0.,12.0,0.,12.0,0.,12.0,0.,12.0
1981-08-30 15:29:37.220 ,3,1,0.,12.0,0.,12.0,0.,12.0,0.,12.0
1981-08-30 15:29:49.220 ,3,1,0.,12.0,0.,12.0,0.,12.0,0.,12.0
1981-08-30 15:30:01.220 ,3,0,0.,12.0,0.,12.0,0.,12.0,0.,12.0
1981-08-30 15:30:13.220 ,3,0,0.,12.0,0.,12.0,0.,12.0,0.,12.0
1981-08-30 15:30:25.220 ,4,1,0.,12.0,0.,12.0,0.,12.0,0.,12.0
1981-08-30 15:30:37.220 ,4,1,0.,12.0,0.,12.0,0.,12.0,0.,12.0
1981-08-30 15:30:49.220 ,4,0,0.,12.0,0.,12.0,0.,12.0,0.,12.0
1981-08-30 15:31:01.220 ,4,0,0.,12.0,0.,12.0,0.,12.0,0.,12.0
1981-08-30 15:31:13.220 ,5,1,0.,12.0,0.,12.0,0.,12.0,0.,12.0
1981-08-30 15:31:25.220 ,5,1,0.,12.0,0.,12.0,0.,12.0,0.,12.0
1981-08-30 15:31:37.220 ,5,0,0.,12.0,0.,12.0,0.,12.0,0.,12.0
1981-08-30 15:31:49.220 ,5,0,0.,12.0,0.,12.0,0.,12.0,0.,12.0
1981-08-30 15:32:01.220 ,6,1,0.,12.0,0.,12.0,0.,12.0,0.,12.0
1981-08-30 15:32:13.220 ,6,1,0.,12.0,0.,12.0,0.,12.0,0.,12.0
1981-08-30 15:32:25.220 ,6,0,0.,12.0,0.,12.0,0.,12.0,0.,12.0
1981-08-30 15:32:37.220 ,6,0,0.,12.0,0.,12.0,0.,12.0,0.,12.0
1981-08-30 15:32:49.220 ,7,1,0.,12.0,0.,12.0,0.,12.0,0.,12.0
1981-08-30 15:33:01.220 ,7,1,0.,12.0,0.,12.0,0.,12.0,0.,12.0
1981-08-30 15:33:13.220 ,7,0,0.,12.0,0.,12.0,0.,12.0,0.,12.0
1981-08-30 15:33:25.220 ,7,0,0.,12.0,0.,12.0,0.,12.0,0.,12.0
1981-08-30 15:33:37.220 ,7,1,0.,12.0,0.,12.0,0.,12.0,0.,12.0
1981-08-30 15:33:49.220 ,7,1,0.,12.0,0.,12.0,0.,12.0,0.,12.0
1981-08-30 15:34:01.220 ,7,0,0.,12.0,0.,12.0,0.,12.0,0.,12.0
1981-08-30 15:34:13.220 ,7,0,0.,12.0,0.,12.0,0.,12.0,0.,12.0
1981-08-30 15:34:25.220 ,6,1,0.,12.0,0.,12.0,0.,12.0,0.,12.0
1981-08-30 15:34:37.220 ,6,1,0.,12.0,0.,12.0,0.,12.0,0.,12.0
1981-08-30 15:34:49.220 ,6,0,0.,12.0,0.,12.0,0.,12.0,0.,12.0
1981-08-30 15:35:01.220 ,6,0,0.,12.0,0.,12.0,0.,12.0,0.,12.0
1981-08-30 15:35:13.220 ,5,1,0.,12.0,0.,12.0,0.,12.0,0.,12.0
1981-08-30 15:35:25.220 ,5,1,0.,12.0,0.,12.0,0.,12.0,0.,12.0
1981-08-30 15:35:37.220 ,5,0,0.,12.0,0.,12.0,0.,12.0,0.,12.0
1981-08-30 15:35:49.220 ,5,0,0.,12.0,0.,12.0,0.,12.0,0.,12.0
1981-08-30 15:36:01.220 ,4,1,0.,12.0,0.,12.0,0.,12.0,0.,12.0
1981-08-30 15:36:13.220 ,4,1,0.,12.0,0.,12.0,0.,12.0,0.,12.0
1981-08-30 15:36:25.220 ,4,0,0.,12.0,0.,12.0,0.,12.0,0.,12.0
1981-08-30 15:36:37.220 ,4,0,0.,12.0,0.,12.0,0.,12.0,0.,12.0
1981-08-30 15:36:49.220 ,3,1,0.,12.0,0.,12.0,0.,12.0,0.,12.0
1981-08-30 15:37:01.220 ,3,1,0.,12.0,0.,12.0,0.,12.0,0.,12.0
1981-08-30 15:37:13.220 ,3,0,0.,12.0,0.,12.0,0.,12.0,0.,12.0
1981-08-30 15:37:25.220 ,3,0,0.,12.0,0.,12.0,0.,12.0,0.,12.0
1981-08-30 15:37:37.220 ,2,1,0.,12.0,0.,12.0,0.,12.0,0.,12.0
1981-08-30 15:37:49.220 ,2,1,0.,12.0,0.,12.0,0.,12.0,0.,12.0
1981-08-30 15:38:01.220 ,2,0,0.,12.0,0.,12.0,0.,12.0,0.,12.0
1981-08-30 15:38:13.220 ,2,0,0.,12.0,0.,12.0,0.,12.0,0.,12.0
1981-08-30 15:38:25.220 ,1,1,0.,12.0,0.,12.0,0.,12.0,0.,12.0
1981-08-30 15:38:37.220 ,1,1,0.,12.0,0.,12.0,0.,12.0,0.,12.0
1981-08-30 15:38:49.220 ,1,0,0.,12.0,0.,12.0,0.,12.0,0.,12.0
1981-08-30 15:39:01.220 ,1,0,0.,12.0,0.,12.0,0.,12.0,0.,12.0
1981-08-30 15:39:13.220 ,0,1,0.,12.0,0.,12.0,0.,12.0,0.,12.0
1981-08-30 15:39:25.220 ,0,1,0.,12.0,0.,12.0,0.,12.0,0.,12.0
1981-08-30 15:39:37.220 ,0,0,0.,12.0,0.,12.0,0.,12.0,0.,12.0
1981-08-30 15:39:49.220 ,0,0,0.,12.0,0.,12.0,0.,12.0,0.,12.0
1981-08-30 15:40:01.220 ,0,1,0.,12.0,0.,12.0,0.,12.0,0.,12.0
1981-08-30 15:40:13.220 ,0,1,0.,12.0,0.,12.0,0.,12.0,0.,12.0
1981-08-30 15:40:25.220 ,0,0,0.,12.0,0.,12.0,0.,12.0,0.,12.0
1981-08-30 15:40:37.220 ,0,0,0.,12.0,0.,12.0,0.,12.0,0.,12.0
1981-08-30 15:40:49.220 ,1,1,0.,12.0,0.,12.0,0.,12.0,0.,12.0
1981-08-30 15:41:01.220 ,1,1,0.,12.0,0.,12.0,0.,12.0,0.,12.0
1981-08-30 15:41:13.220 ,1,0,0.,12.0,0.,12.0,0.,12.0,0.,12.0
1981-08-30 15:41:25.220 ,1,0,0.,12.0,0.,12.0,0.,12.0,0.,12.0
1981-08-30 15:41:37.220 ,2,1,0.,12.0,0.,12.0,0.,12.0,0.,12.0
1981-08-30 15:41:49.220 ,2,1,0.,12.0,0.,12.0,0.,12.0,0.,12.0
1981-08-30 15:42:01.220 ,2,0,0.,12.0,0.,12.0,0.,12.0,0.,12.0
1981-08-30 15:42:13.220 ,2,0,0.,12.0,0.,12.0,0.,12.0,0.,12.0
1981-08-30 15:42:25.220 ,3,1,0.,12.0,0.,12.0,0.,12.0,0.,12.0
1981-08-30 15:42:37.220 ,3,1,0.,12.0,0.,12.0,0.,12.0,0.,12.0
1981-08-30 15:42:49.220 ,4,1,0.,12.0,0.,12.0,0.,12.0,0.,12.0
1981-08-30 15:43:01.220 ,4,1,0.,12.0,0.,12.0,0.,12.0,0.,12.0
1981-08-30 15:43:13.220 ,5,1,0.,12.0,0.,12.0,0.,12.0,0.,12.0
1981-08-30 15:43:25.220 ,5,1,0.,12.0,0.,12.0,0.,12.0,0.,12.0
1981-08-30 15:43:37.220 ,6,1,0.,12.0,0.,12.0,0.,12.0,1.,12.0
1981-08-30 15:43:49.220 ,6,1,0.,12.0,0.,12.0,0.,12.0,0.,12.0
1981-08-30 15:44:01.220 ,7,1,0.,12.0,0.,12.0,0.,12.0,0.,12.0
1981-08-30 15:44:13.220 ,7,1,0.,12.0,0.,12.0,0.,12.0,0.,12.0
1981-08-30 15:44:25.220 ,7,1,0.,12.0,0.,12.0,0.,12.0,0.,12.0
1981-08-30 15:44:37.220 ,7,1,0.,12.0,0.,12.0,0.,12.0,0.,12.0
1981-08-30 15:44:49.220 ,6,1,0.,12.0,0.,12.0,0.,12.0,0.,12.0
1981-08-30 15:45:01.220 ,6,1,0.,12.0,0.,12.0,0.,12.0,0.,12.0
1981-08-30 15:45:13.220 ,5,1,0.,12.0,0.,12.0,0.,12.0,0.,12.0
1981-08-30 15:45:25.220 ,5,1,0.,12.0,0.,12.0,0.,12.0,0.,12.0
1981-08-30 15:45:37.220 ,4,1,0.,12.0,0.,12.0,0.,12.0,0.,12.0
1981-08-30 15:45:49.220 ,4,1,0.,12.0,0.,12.0,0.,12.0,0.,12.0
1981-08-30 15:46:01.220 ,3,1,0.,12.0,0.,12.0,0.,12.0,0.,12.0
1981-08-30 15:46:13.220 ,3,1,0.,12.0,0.,12.0,0.,12.0,0.,12.0
1981-08-30 15:46:25.220 ,2,1,0.,12.0,0.,12.0,0.,12.0,0.,12.0
1981-08-30 15:46:37.220 ,2,1,0.,12.0,0.,12.0,0.,12.0,0.,12.0
1981-08-30 15:46:49.220 ,1,1,0.,12.0,0.,12.0,0.,12.0,0.,12.0
1981-08-30 15:47:01.220 ,1,1,0.,12.0,0.,12.0,0.,12.0,0.,12.0
1981-08-30 15:47:13.220 ,0,1,0.,12.0,0.,12.0,0.,12.0,0.,12.0
1981-08-30 15:47:25.220 ,0,1,0.,12.0,0.,12.0,0.,12.0,0.,12.0
1981-08-30 15:47:37.220 ,0,1,0.,12.0,0.,12.0,0.,12.0,0.,12.0
1981-08-30 15:47:49.220 ,0,1,0.,12.0,0.,12.0,0.,12.0,0.,12.0
1981-08-30 15:48:01.220 ,1,1,0.,12.0,0.,12.0,0.,12.0,0.,12.0
1981-08-30 15:48:13.220 ,1,1,0.,12.0,0.,12.0,0.,12.0,0.,12.0
1981-08-30 15:48:25.220 ,2,1,0.,12.0,0.,12.0,0.,12.0,0.,12.0
1981-08-30 15:48:37.220 ,2,1,0.,12.0,0.,12.0,0.,12.0,0.,12.0
1981-08-30 15:48:49.220 ,3,1,0.,12.0,0.,12.0,0.,12.0,0.,12.0
1981-08-30 15:49:01.220 ,3,1,0.,12.0,0.,12.0,0.,12.0,0.,12.0
1981-08-30 15:49:13.220 ,3,0,0.,12.0,0.,12.0,0.,12.0,0.,12.0
1981-08-30 15:49:25.220 ,3,0,0.,12.0,0.,12.0,0.,12.0,0.,12.0
1981-08-30 15:49:37.220 ,4,1,0.,12.0,0.,12.0,0.,12.0,0.,12.0
1981-08-30 15:49:49.220 ,4,1,0.,12.0,0.,12.0,0.,12.0,0.,12.0
1981-08-30 15:50:01.220 ,4,0,0.,12.0,0.,12.0,0.,12.0,0.,12.0
1981-08-30 15:50:13.220 ,4,0,0.,12.0,0.,12.0,0.,12.0,0.,12.0
1981-08-30 15:50:25.220 ,5,1,0.,12.0,0.,12.0,0.,12.0,0.,12.0
1981-08-30 15:50:37.220 ,5,1,0.,12.0,0.,12.0,0.,12.0,0.,12.0
1981-08-30 15:50:49.220 ,5,0,0.,12.0,0.,12.0,0.,12.0,0.,12.0
1981-08-30 15:51:01.220 ,5,0,0.,12.0,0.,12.0,0.,12.0,0.,12.0
1981-08-30 15:51:13.220 ,6,1,0.,12.0,0.,12.0,0.,12.0,0.,12.0
1981-08-30 15:51:25.220 ,6,1,0.,12.0,0.,12.0,0.,12.0,0.,12.0
1981-08-30 15:51:37.220 ,6,0,0.,12.0,0.,12.0,0.,12.0,0.,12.0
1981-08-30 15:51:49.220 ,6,0,0.,12.0,0.,12.0,0.,12.0,0.,12.0
1981-08-30 15:52:01.220 ,7,1,0.,12.0,0.,12.0,0.,12.0,0.,12.0
1981-08-30 15:52:13.220 ,7,1,0.,12.0,0.,12.0,0.,12.0,0.,12.0
1981-08-30 15:52:25.220 ,7,0,0.,12.0,0.,12.0,0.,12.0,0.,12.0
1981-08-30 15:52:37.220 ,7,0,0.,12.0,0.,12.0,0.,12.0,0.,12.0
1981-08-30 15:52:49.220 ,7,1,0.,12.0,0.,12.0,0.,12.0,0.,12.0
1981-08-30 15:53:01.220 ,7,1,0.,12.0,0.,12.0,0.,12.0,0.,12.0
1981-08-30 15:53:13.220 ,7,0,0.,12.0,0.,12.0,0.,12.0,0.,12.0
1981-08-30 15:53:25.220 ,7,0,0.,12.0,0.,12.0,0.,12.0,0.,12.0
1981-08-30 15:53:37.220 ,6,1,0.,12.0,0.,12.0,0.,12.0,0.,12.0
1981-08-30 15:53:49.220 ,6,1,0.,12.0,0.,12.0,0.,12.0,0.,12.0
1981-08-30 15:54:01.220 ,6,0,0.,12.0,0.,12.0,0.,12.0,0.,12.0
1981-08-30 15:54:13.220 ,6,0,0.,12.0,0.,12.0,0.,12.0,0.,12.0
1981-08-30 15:54:25.220 ,5,1,0.,12.0,0.,12.0,0.,12.0,0.,12.0
1981-08-30 15:54:37.220 ,5,1,0.,12.0,0.,12.0,0.,12.0,0.,12.0
1981-08-30 15:54:49.220 ,5,0,0.,12.0,0.,12.0,0.,12.0,0.,12.0
1981-08-30 15:55:01.220 ,5,0,0.,12.0,0.,12.0,0.,12.0,0.,12.0
1981-08-30 15:55:13.220 ,4,1,0.,12.0,0.,12.0,0.,12.0,0.,12.0
1981-08-30 15:55:25.220 ,4,1,0.,12.0,0.,12.0,0.,12.0,0.,12.0
1981-08-30 15:55:37.220 ,0,0,0.,12.0,0.,12.0,0.,12.0,0.,12.0
1981-08-30 15:55:49.220 ,0,0,0.,12.0,0.,12.0,0.,12.0,0.,12.0
1981-08-30 15:56:03.620 ,3,1,,0,,0,,0,,0
1981-08-30 15:56:15.620 ,3,1,0.,12.0,0.,12.0,0.,12.0,0.,12.0
1981-08-30 15:56:25.220 ,3,0,0.,12.0,0.,12.0,0.,12.0,0.,12.0
1981-08-30 15:56:37.220 ,3,0,0.,12.0,0.,12.0,0.,12.0,0.,12.0
1981-08-30 15:56:49.220 ,2,1,0.,12.0,0.,12.0,0.,12.0,0.,12.0
1981-08-30 15:57:01.220 ,2,1,0.,12.0,0.,12.0,0.,12.0,0.,12.0
1981-08-30 15:57:13.220 ,2,0,0.,12.0,0.,12.0,0.,12.0,0.,12.0
1981-08-30 15:57:25.220 ,2,0,0.,12.0,0.,12.0,0.,12.0,0.,12.0
1981-08-30 15:57:37.220 ,1,1,0.,12.0,0.,12.0,0.,12.0,0.,12.0
1981-08-30 15:57:49.220 ,1,1,0.,12.0,0.,12.0,0.,12.0,0.,12.0
1981-08-30 15:58:01.220 ,1,0,0.,12.0,0.,12.0,0.,12.0,0.,12.0
1981-08-30 15:58:13.220 ,1,0,0.,12.0,0.,12.0,0.,12.0,0.,12.0
1981-08-30 15:58:25.220 ,0,1,0.,12.0,0.,12.0,0.,12.0,0.,12.0
1981-08-30 15:58:37.220 ,0,1,0.,12.0,0.,12.0,0.,12.0,0.,12.0
1981-08-30 15:58:49.220 ,0,0,0.,12.0,0.,12.0,0.,12.0,0.,12.0
1981-08-30 15:59:01.220 ,0,0,0.,12.0,0.,12.0,0.,12.0,0.,12.0
1981-08-30 15:59:13.220 ,0,1,0.,12.0,0.,12.0,0.,12.0,0.,12.0
1981-08-30 15:59:25.220 ,0,1,0.,12.0,0.,12.0,0.,12.0,0.,12.0
1981-08-30 15:59:37.220 ,0,0,0.,12.0,0.,12.0,0.,12.0,0.,12.0
1981-08-30 15:59:49.220 ,0,0,0.,12.0,0.,12.0,0.,12.0,0.,12.0
1981-08-30 16:00:01.220 ,1,1,0.,12.0,0.,12.0,0.,12.0,1.,12.0
1981-08-30 16:00:13.220 ,1,1,0.,12.0,0.,12.0,0.,12.0,0.,12.0
1981-08-30 16:00:25.220 ,1,0,0.,12.0,0.,12.0,0.,12.0,0.,12.0
1981-08-30 16:00:37.220 ,1,0,0.,12.0,0.,12.0,0.,12.0,0.,12.0
1981-08-30 16:00:49.220 ,2,1,0.,12.0,0.,12.0,0.,12.0,0.,12.0
1981-08-30 16:01:01.220 ,2,1,0.,12.0,0.,12.0,0.,12.0,0.,12.0
1981-08-30 16:01:13.220 ,2,0,0.,12.0,0.,12.0,0.,12.0,0.,12.0
1981-08-30 16:01:25.220 ,2,0,0.,12.0,0.,12.0,0.,12.0,0.,12.0
1981-08-30 16:01:37.220 ,3,1,0.,12.0,0.,12.0,0.,12.0,0.,12.0
1981-08-30 16:01:49.220 ,3,1,0.,12.0,0.,12.0,0.,12.0,0.,12.0
1981-08-30 16:02:01.220 ,4,1,0.,12.0,0.,12.0,0.,12.0,0.,12.0
1981-08-30 16:02:13.220 ,4,1,0.,12.0,0.,12.0,0.,12.0,0.,12.0
1981-08-30 16:02:25.220 ,5,1,0.,12.0,0.,12.0,0.,12.0,0.,12.0
1981-08-30 16:02:37.220 ,5,1,0.,12.0,0.,12.0,0.,12.0,0.,12.0
1981-08-30 16:02:49.220 ,6,1,0.,12.0,0.,12.0,0.,12.0,0.,12.0
1981-08-30 16:03:01.220 ,6,1,0.,12.0,0.,12.0,0.,12.0,0.,12.0
1981-08-30 16:03:13.220 ,7,1,0.,12.0,0.,12.0,0.,12.0,0.,12.0
1981-08-30 16:03:25.220 ,7,1,0.,12.0,0.,12.0,0.,12.0,0.,12.0
1981-08-30 16:03:37.220 ,7,1,0.,12.0,0.,12.0,0.,12.0,0.,12.0
1981-08-30 16:03:49.220 ,7,1,0.,12.0,0.,12.0,0.,12.0,0.,12.0
1981-08-30 16:04:01.220 ,6,1,0.,12.0,0.,12.0,0.,12.0,0.,12.0
1981-08-30 16:04:13.220 ,6,1,0.,12.0,0.,12.0,0.,12.0,0.,12.0
1981-08-30 16:04:25.220 ,5,1,0.,12.0,0.,12.0,0.,12.0,0.,12.0
1981-08-30 16:04:37.220 ,5,1,0.,12.0,0.,12.0,0.,12.0,0.,12.0
1981-08-30 16:04:49.220 ,4,1,0.,12.0,0.,12.0,0.,12.0,0.,12.0
1981-08-30 16:05:01.220 ,4,1,0.,12.0,0.,12.0,0.,12.0,0.,12.0
1981-08-30 16:05:13.220 ,3,1,0.,12.0,0.,12.0,0.,12.0,0.,12.0
1981-08-30 16:05:25.220 ,3,1,0.,12.0,0.,12.0,0.,12.0,0.,12.0
1981-08-30 16:05:37.220 ,2,1,0.,12.0,0.,12.0,0.,12.0,0.,12.0
1981-08-30 16:05:49.220 ,2,1,0.,12.0,0.,12.0,0.,12.0,0.,12.0
1981-08-30 16:06:01.220 ,1,1,0.,12.0,0.,12.0,0.,12.0,0.,12.0
1981-08-30 16:06:13.220 ,1,1,0.,12.0,0.,12.0,0.,12.0,0.,12.0
1981-08-30 16:06:25.220 ,0,1,0.,12.0,0.,12.0,0.,12.0,0.,12.0
1981-08-30 16:06:37.220 ,0,1,0.,12.0,0.,12.0,0.,12.0,0.,12.0
1981-08-30 16:06:49.220 ,0,1,0.,12.0,0.,12.0,0.,12.0,0.,12.0
1981-08-30 16:07:01.220 ,0,1,0.,12.0,0.,12.0,0.,12.0,0.,12.0
1981-08-30 16:07:13.220 ,1,1,0.,12.0,0.,12.0,0.,12.0,0.,12.0
1981-08-30 16:07:25.220 ,1,1,0.,12.0,0.,12.0,0.,12.0,0.,12.0
1981-08-30 16:07:37.220 ,2,1,0.,12.0,0.,12.0,0.,12.0,0.,12.0
1981-08-30 16:07:49.220 ,2,1,0.,12.0,0.,12.0,0.,12.0,0.,12.0
1981-08-30 16:08:01.220 ,3,1,0.,12.0,0.,12.0,0.,12.0,0.,12.0
1981-08-30 16:08:13.220 ,3,1,0.,12.0,0.,12.0,0.,12.0,0.,12.0
1981-08-30 16:08:25.220 ,3,0,0.,12.0,0.,12.0,0.,12.0,0.,12.0
1981-08-30 16:08:37.220 ,3,0,0.,12.0,0.,12.0,0.,12.0,0.,12.0
1981-08-30 16:08:49.220 ,4,1,0.,12.0,0.,12.0,0.,12.0,0.,12.0
1981-08-30 16:09:01.220 ,4,1,0.,12.0,0.,12.0,0.,12.0,0.,12.0
1981-08-30 16:09:13.220 ,4,0,0.,12.0,0.,12.0,0.,12.0,0.,12.0
1981-08-30 16:09:25.220 ,4,0,0.,12.0,0.,12.0,0.,12.0,0.,12.0
1981-08-30 16:09:37.220 ,5,1,0.,12.0,0.,12.0,0.,12.0,0.,12.0
1981-08-30 16:09:49.220 ,5,1,0.,12.0,0.,12.0,0.,12.0,0.,12.0
1981-08-30 16:10:01.220 ,5,0,0.,12.0,0.,12.0,0.,12.0,0.,12.0
1981-08-30 16:10:13.220 ,5,0,0.,12.0,0.,12.0,0.,12.0,0.,12.0
1981-08-30 16:10:25.220 ,6,1,0.,12.0,0.,12.0,0.,12.0,0.,12.0
1981-08-30 16:10:37.220 ,6,1,0.,12.0,0.,12.0,0.,12.0,0.,12.0
1981-08-30 16:10:49.220 ,6,0,0.,12.0,0.,12.0,0.,12.0,0.,12.0
1981-08-30 16:11:01.220 ,6,0,0.,12.0,0.,12.0,0.,12.0,0.,12.0
1981-08-30 16:11:13.220 ,7,1,0.,12.0,0.,12.0,0.,12.0,0.,12.0
1981-08-30 16:11:25.220 ,7,1,0.,12.0,0.,12.0,0.,12.0,0.,12.0
1981-08-30 16:11:37.220 ,7,0,0.,12.0,0.,12.0,0.,12.0,0.,12.0
1981-08-30 16:11:49.220 ,7,0,0.,12.0,0.,12.0,0.,12.0,0.,12.0
1981-08-30 16:12:01.220 ,7,1,0.,12.0,0.,12.0,0.,12.0,0.,12.0
1981-08-30 16:12:13.220 ,7,1,0.,12.0,0.,12.0,0.,12.0,0.,12.0
1981-08-30 16:12:25.220 ,7,0,0.,12.0,0.,12.0,0.,12.0,0.,12.0
1981-08-30 16:12:37.220 ,7,0,0.,12.0,0.,12.0,0.,12.0,0.,12.0
1981-08-30 16:12:49.220 ,6,1,0.,12.0,0.,12.0,0.,12.0,0.,12.0
1981-08-30 16:13:01.220 ,6,1,0.,12.0,0.,12.0,0.,12.0,0.,12.0
1981-08-30 16:13:13.220 ,6,0,0.,12.0,0.,12.0,0.,12.0,0.,12.0
1981-08-30 16:13:25.220 ,6,0,0.,12.0,0.,12.0,0.,12.0,0.,12.0
1981-08-30 16:13:37.220 ,5,1,0.,12.0,0.,12.0,0.,12.0,0.,12.0
1981-08-30 16:13:49.220 ,5,1,0.,12.0,0.,12.0,0.,12.0,0.,12.0
1981-08-30 16:14:01.220 ,5,0,0.,12.0,0.,12.0,0.,12.0,0.,12.0
1981-08-30 16:14:13.220 ,5,0,0.,12.0,0.,12.0,0.,12.0,0.,12.0
1981-08-30 16:14:25.220 ,4,1,0.,12.0,0.,12.0,0.,12.0,0.,12.0
1981-08-30 16:14:37.220 ,4,1,0.,12.0,0.,12.0,0.,12.0,0.,12.0
1981-08-30 16:14:49.220 ,4,0,0.,12.0,0.,12.0,0.,12.0,0.,12.0
1981-08-30 16:15:01.220 ,4,0,0.,12.0,0.,12.0,0.,12.0,0.,12.0
1981-08-30 16:15:13.220 ,3,1,0.,12.0,0.,12.0,0.,12.0,0.,12.0
1981-08-30 16:15:25.220 ,3,1,0.,12.0,0.,12.0,0.,12.0,0.,12.0
1981-08-30 16:15:37.220 ,3,0,0.,12.0,0.,12.0,0.,12.0,0.,12.0
1981-08-30 16:15:49.220 ,3,0,0.,12.0,0.,12.0,0.,12.0,0.,12.0
1981-08-30 16:16:01.220 ,2,1,0.,12.0,0.,12.0,0.,12.0,0.,12.0
1981-08-30 16:16:13.220 ,2,1,0.,12.0,0.,12.0,0.,12.0,0.,12.0
1981-08-30 16:16:25.220 ,2,0,0.,12.0,0.,12.0,0.,12.0,0.,12.0
1981-08-30 16:16:37.220 ,2,0,0.,12.0,0.,12.0,0.,12.0,0.,12.0
1981-08-30 16:16:49.220 ,1,1,0.,12.0,0.,12.0,0.,12.0,0.,12.0
1981-08-30 16:17:01.220 ,1,1,0.,12.0,0.,12.0,0.,12.0,0.,12.0
1981-08-30 16:17:13.220 ,1,0,0.,12.0,0.,12.0,0.,12.0,0.,12.0
1981-08-30 16:17:25.220 ,1,0,0.,12.0,0.,12.0,0.,12.0,0.,12.0